User: anonymous   Login
Location: Holcomb Observatory
(44.4922°N, 73.1654°W)
Time: 01:52:15
(UTC-05:00)
Language:

Cosmos 1727 Rocket - Orbit

View from above orbital plane
View from above orbital plane
View from above satellite
View from above satellite

Ground track
Ground track

The orbit data is extracted from the following two-line orbital elements,

1 16511U 86008B   15058.54314503  .00000084  00000-0  71102-4 0  9997
2 16511 082.9449 123.3379 0025694 110.2925 359.6661 13.75782837460687
Epoch (UTC): 27 February 2015 13:02:07
Eccentricity: 0.0025694
inclination: 82.9449°
perigee height: 960 km
apogee height: 998 km
right ascension of ascending node: 123.3379°
argument of perigee: 110.2925°
revolutions per day: 13.75782837
mean anomaly at epoch: 359.6661°
orbit number at epoch: 46068

The dashed part of the orbit path shows where the satellite is in the earth's shadow,  

DLR